Regional Weather Roundup
Issued by NWS Bismarck, ND

Home | Current Version | Previous Version | Text Only | Print | Product List | Glossary On
Versions: 1 2 3 4 5 6 7 8 9 10 11 12 13 14 15 16 17 18 19 20 21 22 23 24 25 26 27 28 29 30 31 32 33 34 35 36 37 38 39 40 41 42 43 44 45 46 47 48 49 50
000
ASUS43 KBIS 300310
RWRBIS

NWR BROADCAST TEXT
NATIONAL WEATHER SERVICE BISMARCK ND
1000 PM CDT WED JUL 29 2015

NOTE: "FAIR" INDICATES FEW OR NO CLOUDS BELOW 12,000 FEET WITH NO
SIGNIFICANT WEATHER AND/OR OBSTRUCTIONS TO VISIBILITY.


CITY           SKY/WX    TMP DP  RH WIND       PRES   REMARKS
WILLISTON      PTCLDY    66  51  58 W6        30.07R
MINOT          CLEAR     69  53  56 W10       30.01R
MINOT AFB      CLEAR     62  59  88 W10       30.00R
BISMARCK       CLEAR     70  51  51 W6        30.05R
DICKINSON      CLEAR     68  46  45 NW8       30.11R
GARRISON         N/A     62  55  77 NW9       30.05R
HETTINGER ARPT PTCLDY    57  49  74 CALM      30.15R
JAMESTOWN      CLEAR     69  52  54 W10       30.00R
BEACH          FAIR      63  48  59 CALM      30.15R
CROSBY         FAIR      61  57  88 W8        30.06R
HARVEY         FAIR      66  54  63 W10       30.00R
HAZEN          FAIR      64  50  59 W3        30.07R
LINTON         FAIR      63  55  77 SW5       30.07R
MANDAN         FAIR      63  50  63 W10       30.08R
OAKES            N/A     64  57  77 W6        30.03R
STANLEY        FAIR      61  55  82 W7        30.07R
$$

CITY           SKY/WX    TMP DP  RH WIND       PRES   REMARKS
GRAND FORKS    PTCLDY    66  58  75 W7        29.90R
GRAND FORKS AF CLEAR     66  59  77 W7        29.91R
DEVILS LAKE    PTCLDY    66  54  63 W10       29.95R
FARGO          CLEAR     70  58  65 SW12      29.94R
CAVALIER       FAIR      68  59  73 W7        29.88R
GRAFTON        FAIR      70  61  73 W10       29.89R
GWINNER        FAIR      64  57  77 SW8       30.02R
LANGDON        FAIR      61  57  88 W9        29.93R
ROLLA          FAIR      63  55  77 W9        29.98R
WALHALLA       FAIR      72  59  64 MISG      29.89R
$$

CITY           SKY/WX    TMP DP  RH WIND       PRES   REMARKS
ABERDEEN       CLEAR     63  55  75 SW5       30.05R
MOBRIDGE       CLEAR     63  57  81 CALM      30.06R
BUFFALO          N/A     71  39  31 NW13      30.10R
RAPID CITY     CLEAR     62  51  67 NE8       30.18R
GLASGOW        CLEAR     72  47  40 W6        30.07R
SIDNEY         CLEAR    N/A N/A N/A W6        30.07S
WOLF POINT     CLEAR     72  48  42 SW3       30.07R
GLENDIVE       CLEAR     72  45  37 NW3       30.12S
MILES CITY     CLEAR     73  43  33 N6        30.12R
BAKER          CLEAR     69  42  37 CALM      30.16R
$$

CITY           SKY/WX    TMP DP  RH WIND       PRES   REMARKS
BILLINGS       CLEAR     75  36  24 N8        30.19R
GREAT FALLS    CLEAR     68  42  38 SW9       30.15R
REGINA         MOCLDY    64  54  68 W10       30.02R
$$




USA.gov is the U.S. government's official web portal to all federal, state and local government web resources and services.